Location: Brno
(49.2000°N, 16.6330°E)
Time: 03:27:11
(UTC+02:00)

Cosmos 2227 - Visible Passes

Search period start: 21 April 2015 00:00
Search period end: 01 May 2015 00:00
Orbit: 833 x 863 km, 71.0° (Epoch: 20 April)

Date Brightness Start Highest point End Pass type
(mag) Time Alt. Az. Time Alt. Az. Time Alt. Az.
21 Apr 7.1 00:23:14 10° N 00:25:19 12° NNE 00:27:33 10° NE visible
21 Apr 5.6 02:06:06 10° NNW 02:11:25 37° NE 02:16:44 10° ESE visible
21 Apr 4.4 03:50:17 10° NW 03:55:49 47° WSW 04:01:05 11° S visible
21 Apr 7.0 20:34:40 10° WNW 20:38:01 15° NNW 20:41:14 10° N visible
22 Apr 7.0 00:10:13 10° N 00:12:15 12° NNE 00:14:26 10° NE visible
22 Apr 5.6 01:53:03 10° NNW 01:58:21 36° NE 02:03:39 10° ESE visible
22 Apr 4.4 03:37:14 10° NW 03:42:46 48° WSW 03:46:15 22° S visible
22 Apr 7.0 23:57:11 10° N 23:59:10 12° NNE 00:01:19 10° NE visible
23 Apr 5.6 01:40:01 10° NNW 01:45:17 36° NE 01:50:15 11° ESE visible
23 Apr 4.4 03:24:10 10° NW 03:29:43 49° WSW 03:32:07 31° SSW visible
23 Apr 7.0 23:44:09 10° N 23:46:06 12° NNE 23:48:11 10° NE visible
24 Apr 5.6 01:26:57 10° NNW 01:32:13 35° NE 01:36:27 15° ESE visible
24 Apr 4.4 03:11:07 10° NW 03:16:40 49° WSW 03:18:20 38° SSW visible
24 Apr 6.9 23:31:07 10° N 23:33:02 12° NNE 23:35:04 10° NE visible
25 Apr 5.6 01:13:55 10° NNW 01:19:10 35° NE 01:22:52 18° ESE visible
25 Apr 4.4 02:58:03 10° NW 03:03:37 50° WSW 03:04:46 43° SW visible
25 Apr 6.9 23:18:05 10° N 23:19:57 12° NNE 23:21:56 10° NE visible
26 Apr 5.6 01:00:52 10° NNW 01:06:06 35° NE 01:09:26 20° ESE visible
26 Apr 4.4 02:45:00 10° NW 02:50:34 51° WSW 02:51:21 47° SW visible
26 Apr 6.9 23:05:04 10° N 23:06:52 11° NNE 23:08:48 10° NE visible
27 Apr 5.6 00:47:49 10° NNW 00:53:02 34° NE 00:56:07 21° E visible
27 Apr 4.3 02:31:55 10° NW 02:37:31 51° WSW 02:38:02 50° SW visible
27 Apr 6.9 22:52:02 10° N 22:53:47 11° NNE 22:55:41 10° NE visible
28 Apr 5.6 00:34:45 10° NNW 00:39:58 34° NE 00:42:53 22° E visible
28 Apr 4.3 02:18:52 10° NW 02:24:28 52° WSW 02:24:48 51° WSW visible
28 Apr 6.8 22:39:01 10° N 22:40:43 11° NNE 22:42:33 10° NE visible
29 Apr 5.6 00:21:43 10° NNW 00:26:54 33° NE 00:29:43 22° E visible
29 Apr 4.3 02:05:48 10° NW 02:11:24 53° WSW 02:11:38 52° WSW visible
29 Apr 6.8 22:26:00 10° N 22:27:38 11° NNE 22:29:24 10° NE visible
30 Apr 5.6 00:08:40 10° NNW 00:13:50 33° NE 00:16:36 22° E visible
30 Apr 4.3 01:52:44 10° NW 01:58:21 54° WSW 01:58:31 53° WSW visible
30 Apr 6.8 22:12:58 10° N 22:14:33 11° NNE 22:16:17 10° NE visible
